period_start,C,m1,H,J0,J1,J2,J3,J4,J5,JA,JB,JC,JD,JJ,JK,JN,#
2017-11-26 00:03:30,0.01,0.11,0.00,16.44,19.83,22.99,14.22,47.49,1011.25,2057.95,3467.06,3119.00,3568.79,600.09,606.47,9.61,0000 0000 0000 0000 000000
2017-11-26 00:08:31,0.01,0.11,0.00,16.44,19.82,23.01,14.14,47.48,1011.25,2057.95,3467.00,3119.00,3568.33,599.82,606.11,9.66,0000 0000 0000 0000 000000
2017-11-26 00:13:32,0.01,0.11,0.00,16.44,19.82,23.00,14.20,47.53,1011.25,2057.98,3466.66,3118.93,3568.02,599.75,606.13,9.71,0000 0000 0000 0000 000000
2017-11-26 00:18:33,0.03,0.11,0.00,16.43,19.81,23.02,14.17,47.48,1011.25,2057.97,3465.83,3118.24,3567.75,599.96,606.25,9.76,0000 0000 0000 0000 000000
2017-11-26 00:23:34,0.04,0.11,0.00,16.42,19.80,23.01,14.16,47.35,1011.25,2057.97,3464.69,3117.64,3566.90,599.79,606.14,9.81,0000 0000 0000 0000 000000
2017-11-26 00:28:36,0.03,0.11,0.00,16.42,19.79,23.00,14.15,47.39,1011.26,2057.98,3463.51,3117.01,3566.07,599.84,606.24,9.86,0000 0000 0000 0000 000000
2017-11-26 00:33:37,0.00,0.12,0.00,16.40,19.79,23.01,14.16,47.45,1011.30,2057.98,3463.07,3116.99,3566.00,599.65,605.99,9.91,0000 0000 0000 0000 000000
2017-11-26 00:38:38,0.00,0.12,0.00,16.40,19.79,23.01,14.29,47.42,1011.28,2057.97,3463.00,3116.98,3565.98,600.06,606.48,9.96,0000 0000 0000 0000 000000
2017-11-26 00:43:39,0.00,0.12,0.00,16.38,19.79,22.98,14.15,47.39,1011.29,2057.98,3462.98,3116.94,3565.81,599.87,606.33,10.01,0000 0000 0000 0000 000000
2017-11-26 00:48:40,0.02,0.12,0.00,16.39,19.79,22.98,14.22,47.38,1011.28,2057.99,3462.78,3116.56,3565.36,599.87,606.34,10.06,0000 0000 0000 0000 000000
2017-11-26 00:53:42,0.02,0.12,0.00,16.37,19.77,22.97,14.23,47.42,1011.26,2057.99,3462.06,3116.07,3565.04,600.29,606.68,10.11,0000 0000 0000 0000 000000
2017-11-26 00:58:43,0.01,0.12,0.00,16.38,19.77,22.96,14.21,47.58,1011.27,2057.99,3461.74,3116.00,3565.00,600.16,606.46,10.16,0000 0000 0000 0000 000000
2017-11-26 01:03:44,0.03,0.12,0.00,16.37,19.77,22.96,14.13,47.45,1011.25,2057.99,3461.32,3115.83,3564.19,599.65,606.11,10.21,0000 0000 0000 0000 000000
2017-11-26 01:08:45,0.02,0.12,0.00,16.35,19.76,22.95,14.21,47.38,1011.25,2057.97,3460.89,3115.13,3563.84,600.05,606.57,10.26,0000 0000 0000 0000 000000
2017-11-26 01:13:47,0.02,0.12,0.00,16.33,19.74,22.94,14.24,47.48,1011.24,2057.98,3460.06,3115.00,3563.08,599.87,606.32,10.31,0000 0000 0000 0000 000000
2017-11-26 01:18:48,0.01,0.12,0.00,16.33,19.74,22.94,14.32,47.39,1011.23,2057.98,3459.75,3114.89,3562.99,600.21,606.79,10.36,0000 0000 0000 0000 000000
2017-11-26 01:23:49,0.04,0.12,0.00,16.32,19.73,22.93,14.19,47.51,1011.23,2057.98,3458.81,3114.13,3562.76,600.10,606.67,10.41,0000 0000 0000 0000 000000
2017-11-26 01:28:51,0.01,0.13,0.00,16.32,19.72,22.92,14.18,47.39,1011.19,2057.99,3458.00,3114.00,3562.14,600.07,606.58,10.46,0000 0000 0000 0000 000000
2017-11-26 01:33:52,0.02,0.13,0.00,16.32,19.72,22.90,14.23,47.38,1011.10,2057.99,3457.23,3113.82,3561.97,600.06,606.55,10.51,0000 0000 0000 0000 000000
2017-11-26 01:38:53,0.03,0.13,0.00,16.29,19.71,22.90,14.17,47.36,1010.93,2057.99,3456.65,3113.09,3561.37,599.75,606.18,10.56,0000 0000 0000 0000 000000
2017-11-26 01:43:55,0.00,0.13,0.00,16.29,19.69,22.90,14.25,47.33,1010.82,2057.99,3456.04,3113.00,3561.00,600.21,606.68,10.61,0000 0000 0000 0000 000000
2017-11-26 01:48:56,0.00,0.13,0.00,16.27,19.69,22.91,14.18,47.42,1010.80,2057.99,3455.98,3112.99,3560.98,599.80,606.20,10.66,0000 0000 0000 0000 000000
2017-11-26 01:53:57,0.01,0.13,0.00,16.26,19.68,22.89,14.13,47.43,1010.81,2057.99,3455.32,3112.94,3560.93,599.76,606.20,10.71,0000 0000 0000 0000 000000
2017-11-26 01:58:58,0.01,0.13,0.00,16.24,19.67,22.90,14.18,47.41,1010.84,2058.00,3455.00,3112.69,3560.59,599.98,606.45,10.76,0000 0000 0000 0000 000000
2017-11-26 02:04:00,0.02,0.13,0.00,16.24,19.67,22.86,14.16,47.40,1010.82,2058.00,3454.99,3112.27,3560.13,599.91,606.43,10.81,0000 0000 0000 0000 000000
2017-11-26 02:09:01,0.01,0.13,0.00,16.24,19.66,22.87,14.12,47.46,1010.87,2058.02,3454.96,3112.09,3560.02,599.03,605.51,10.86,0000 0000 0000 0000 000000
2017-11-26 02:14:02,0.01,0.13,0.00,16.23,19.64,22.84,14.20,47.37,1010.82,2058.00,3454.29,3112.03,3560.00,599.95,606.51,10.91,0000 0000 0000 0000 000000
2017-11-26 02:19:03,0.00,0.13,0.00,16.23,19.64,22.84,14.26,47.40,1010.84,2058.01,3454.00,3112.00,3559.98,600.17,606.72,10.96,0000 0000 0000 0000 000000
2017-11-26 02:24:05,0.00,0.13,0.00,16.22,19.64,22.82,14.16,47.44,1010.92,2058.02,3453.97,3111.99,3559.93,599.88,606.43,11.01,0000 0000 0000 0000 000000
2017-11-26 02:29:06,0.02,0.13,0.00,16.22,19.64,22.81,14.20,47.41,1010.96,2058.01,3453.50,3111.97,3559.42,599.75,606.21,11.06,0000 0000 0000 0000 000000
2017-11-26 02:34:07,0.00,0.13,0.00,16.21,19.64,22.82,14.21,47.37,1011.01,2058.01,3453.02,3111.94,3559.10,599.96,606.62,11.11,0000 0000 0000 0000 000000
2017-11-26 02:39:08,0.01,0.14,0.00,16.22,19.63,22.85,14.18,47.56,1011.11,2058.04,3453.00,3111.74,3559.05,600.23,606.87,11.17,0000 0000 0000 0000 000000
2017-11-26 02:44:09,0.01,0.14,0.00,16.20,19.62,22.81,14.14,47.42,1010.97,2058.06,3452.96,3111.22,3559.00,599.55,606.19,11.22,0000 0000 0000 0000 000000
2017-11-26 02:49:10,0.01,0.14,0.00,16.21,19.62,22.82,14.23,47.50,1010.87,2058.05,3452.98,3111.06,3558.65,600.05,606.61,11.27,0000 0000 0000 0000 000000
2017-11-26 02:54:12,0.01,0.14,0.00,16.20,19.62,22.82,14.22,47.42,1011.01,2058.01,3452.33,3111.02,3558.33,600.11,606.80,11.32,0000 0000 0000 0000 000000
2017-11-26 02:59:13,0.00,0.14,0.00,16.19,19.62,22.82,14.24,47.39,1010.99,2058.03,3452.00,3111.00,3558.14,599.96,606.65,11.37,0000 0000 0000 0000 000000
2017-11-26 03:04:14,0.01,0.14,0.00,16.18,19.62,22.83,14.29,47.48,1011.20,2058.13,3451.94,3111.00,3558.02,600.08,606.92,11.42,0000 0000 0000 0000 000000
2017-11-26 03:09:16,0.02,0.14,0.00,16.18,19.61,22.78,14.23,47.37,1011.06,2058.36,3451.22,3110.90,3558.00,600.08,606.84,11.47,0000 0000 0000 0000 000000
2017-11-26 03:14:17,0.07,0.14,0.00,16.16,19.60,22.78,14.24,47.43,1011.10,2058.61,3450.79,3110.18,3557.78,600.09,606.77,11.52,0000 0000 0000 0000 000000
2017-11-26 03:19:18,0.04,0.14,0.00,16.16,19.59,22.79,14.15,47.48,1011.22,2058.70,3449.82,3109.88,3556.95,599.91,606.91,11.57,0000 0000 0000 0000 000000
2017-11-26 03:24:19,0.05,0.15,0.00,16.15,19.59,22.78,14.20,47.63,1011.23,2058.80,3448.71,3109.07,3556.08,599.55,606.47,11.62,0000 0000 0000 0000 000000
2017-11-26 03:29:21,0.04,0.15,0.00,16.15,19.59,22.75,14.16,47.45,1011.25,2058.78,3447.69,3108.52,3555.36,600.05,607.06,11.67,0000 0000 0000 0000 000000
2017-11-26 03:34:22,0.03,0.15,0.00,16.14,19.59,22.78,14.15,47.48,1011.25,2058.66,3446.58,3107.98,3554.68,599.33,606.30,11.72,0000 0000 0000 0000 000000
2017-11-26 03:39:23,0.05,0.15,0.00,16.13,19.59,22.79,14.27,47.52,1011.25,2058.75,3445.64,3107.20,3554.01,599.97,607.04,11.77,0000 0000 0000 0000 000000
2017-11-26 03:44:24,0.03,0.16,0.00,16.12,19.59,22.79,14.26,47.52,1011.30,2058.87,3444.80,3106.98,3553.40,600.07,607.05,11.82,0000 0000 0000 0000 000000
2017-11-26 03:49:26,0.02,0.16,0.00,16.13,19.57,22.80,14.19,47.48,1011.34,2058.63,3443.89,3106.27,3552.74,599.89,606.89,11.87,0000 0000 0000 0000 000000
2017-11-26 03:54:27,0.08,0.16,0.00,16.11,19.57,22.74,14.25,47.48,1011.65,2058.88,3442.54,3105.58,3551.87,600.09,607.23,11.92,0000 0000 0000 0000 000000
2017-11-26 03:59:28,0.04,0.16,0.00,16.11,19.57,22.75,14.31,47.56,1011.72,2058.89,3441.03,3104.81,3550.91,600.13,607.27,11.97,0000 0000 0000 0000 000000
2017-11-26 04:04:29,0.04,0.17,0.00,16.10,19.57,22.71,14.23,47.50,1011.70,2058.93,3440.02,3104.07,3550.07,599.82,607.12,12.02,0000 0000 0000 0000 000000
2017-11-26 04:09:30,0.04,0.17,0.00,16.09,19.56,22.72,14.19,47.50,1011.71,2058.94,3439.01,3103.60,3549.52,599.94,607.21,12.07,0000 0000 0000 0000 000000
2017-11-26 04:14:32,0.10,0.17,0.00,16.08,19.55,22.72,14.22,47.52,1011.54,2058.97,3437.06,3102.38,3548.23,599.94,607.10,12.12,0000 0000 0000 0000 000000
2017-11-26 04:19:33,0.19,0.18,0.00,16.07,19.54,22.75,14.16,47.63,1011.35,2058.96,3432.46,3099.55,3545.10,599.71,606.83,12.17,0000 0000 0000 0000 000000
2017-11-26 04:24:34,0.12,0.19,0.00,16.05,19.54,22.75,14.21,47.56,1011.30,2058.96,3429.13,3097.44,3542.54,599.94,607.11,12.22,0000 0000 0000 0000 000000
2017-11-26 04:29:36,0.09,0.19,0.00,16.05,19.54,22.70,14.22,47.64,1011.26,2058.93,3426.70,3095.87,3540.63,599.71,606.85,12.27,0000 0000 0000 0000 000000
2017-11-26 04:34:36,0.04,0.20,0.00,16.05,19.53,22.69,14.24,47.57,1011.26,2058.85,3425.07,3094.95,3539.40,599.75,607.06,12.32,0000 0000 0000 0000 000000
2017-11-26 04:39:38,0.05,0.20,0.00,16.03,19.52,22.68,14.25,47.54,1011.25,2058.90,3423.82,3094.14,3538.81,600.10,607.42,12.37,0000 0000 0000 0000 000000
2017-11-26 04:44:39,0.12,0.20,0.00,16.03,19.52,22.68,14.23,47.55,1011.25,2058.91,3421.60,3092.71,3536.92,599.94,607.11,12.42,0000 0000 0000 0000 000000
2017-11-26 04:49:40,0.36,0.22,0.00,16.04,19.50,22.70,14.19,47.44,1011.25,2058.89,3414.66,3087.89,3531.44,599.67,606.82,12.47,0000 0000 0000 0000 000000
2017-11-26 04:54:41,0.81,0.25,0.00,16.03,19.49,22.68,14.23,47.42,1011.26,2058.79,3399.54,3076.97,3519.02,600.07,607.34,12.52,0000 0000 0000 0000 000000
2017-11-26 04:59:43,0.82,0.29,0.00,16.03,19.49,22.66,14.26,47.52,1011.26,2058.66,3381.45,3063.90,3504.15,600.21,607.35,12.57,0000 0000 0000 0000 000000
2017-11-26 05:04:44,0.56,0.32,0.00,16.01,19.47,22.70,14.21,47.61,1011.26,2058.51,3367.64,3054.13,3492.96,600.25,607.47,12.62,0000 0000 0000 0000 000000
2017-11-26 05:09:45,0.54,0.35,0.00,16.01,19.47,22.67,14.27,47.55,1011.27,2058.42,3356.06,3045.80,3483.45,600.22,607.46,12.67,0000 0000 0000 0000 000000
2017-11-26 05:14:47,0.48,0.38,0.00,16.01,19.46,22.64,14.24,47.48,1011.25,2058.62,3346.16,3038.79,3475.49,600.08,607.13,12.72,0000 0000 0000 0000 000000
2017-11-26 05:19:48,0.48,0.40,0.00,15.99,19.44,22.66,14.18,47.54,1011.22,2058.71,3336.21,3031.62,3467.21,599.80,607.18,12.77,0000 0000 0000 0000 000000
2017-11-26 05:24:49,0.38,0.42,0.00,15.99,19.44,22.61,14.21,47.56,1011.16,2058.70,3327.78,3025.57,3460.18,599.99,607.20,12.82,0000 0000 0000 0000 000000
2017-11-26 05:29:50,0.33,0.44,0.00,15.97,19.43,22.63,14.25,47.52,1011.21,2058.59,3320.43,3020.27,3454.13,600.07,607.29,12.87,0000 0000 0000 0000 000000
2017-11-26 05:34:52,0.21,0.45,0.00,15.96,19.42,22.66,14.28,47.53,1011.24,2058.62,3315.29,3016.61,3449.85,600.28,607.68,12.92,0000 0000 0000 0000 000000
2017-11-26 05:39:53,0.19,0.46,0.00,15.95,19.41,22.60,14.16,47.52,1011.24,2058.73,3311.28,3013.85,3446.51,599.94,607.38,12.97,0000 0000 0000 0000 000000
2017-11-26 05:44:55,0.12,0.47,0.00,15.93,19.39,22.62,14.20,47.48,1011.24,2058.55,3308.11,3011.61,3443.99,599.58,606.96,13.02,0000 0000 0000 0000 000000
2017-11-26 05:49:56,0.09,0.48,0.00,15.93,19.39,22.61,14.16,47.42,1011.24,2058.56,3306.02,3010.08,3442.19,599.64,607.05,13.07,0000 0000 0000 0000 000000
2017-11-26 05:54:57,0.17,0.49,0.00,15.93,19.37,22.60,14.21,47.39,1011.25,2058.62,3302.67,3007.79,3439.76,600.25,607.68,13.12,0000 0000 0000 0000 000000
2017-11-26 05:59:58,0.14,0.49,0.00,15.93,19.37,22.61,14.18,47.50,1011.25,2058.75,3299.79,3005.96,3437.70,599.91,607.27,13.17,0000 0000 0000 0000 000000
2017-11-26 06:05:00,0.08,0.50,0.00,15.91,19.35,22.59,14.20,47.47,1011.25,2058.91,3297.84,3004.73,3436.29,600.12,607.45,13.22,0000 0000 0000 0000 000000
2017-11-26 06:10:01,0.07,0.50,0.00,15.90,19.34,22.56,14.21,47.42,1011.25,2058.94,3296.34,3003.66,3435.22,599.80,607.32,13.27,0000 0000 0000 0000 000000
2017-11-26 06:15:02,0.06,0.51,0.00,15.88,19.33,22.56,14.31,47.48,1011.25,2058.97,3294.88,3002.75,3434.10,600.08,607.62,13.32,0000 0000 0000 0000 000000
2017-11-26 06:20:04,0.04,0.51,0.00,15.87,19.32,22.55,14.29,47.60,1011.25,2058.98,3293.86,3002.01,3433.11,599.88,607.35,13.37,0000 0000 0000 0000 000000
2017-11-26 06:25:05,0.05,0.51,0.00,15.85,19.32,22.56,14.23,47.41,1011.25,2058.97,3292.96,3001.23,3432.14,600.16,607.70,13.42,0000 0000 0000 0000 000000
2017-11-26 06:30:06,0.03,0.51,0.00,15.83,19.29,22.53,14.18,47.52,1011.25,2058.98,3292.06,3000.85,3431.52,599.49,607.08,13.47,0000 0000 0000 0000 000000
2017-11-26 06:35:07,0.03,0.52,0.00,15.82,19.29,22.53,14.21,47.49,1011.27,2058.98,3291.26,3000.08,3431.01,599.83,607.45,13.52,0000 0000 0000 0000 000000
2017-11-26 06:40:09,0.01,0.52,0.00,15.82,19.28,22.51,14.25,47.63,1011.31,2058.98,3290.52,3000.00,3430.94,600.01,607.61,13.57,0000 0000 0000 0000 000000
2017-11-26 06:45:10,0.04,0.52,0.00,15.80,19.27,22.48,14.24,47.52,1011.42,2058.99,3289.91,2999.46,3430.18,599.60,607.36,13.62,0000 0000 0000 0000 000000
2017-11-26 06:50:11,0.02,0.52,0.00,15.78,19.25,22.50,14.30,47.65,1011.44,2059.00,3289.12,2999.02,3429.98,600.14,607.97,13.68,0000 0000 0000 0000 000000
2017-11-26 06:55:13,0.01,0.52,0.00,15.78,19.24,22.49,14.29,47.71,1011.48,2059.00,3288.88,2998.94,3429.27,600.31,608.26,13.73,0000 0000 0000 0000 000000
2017-11-26 07:00:14,0.03,0.52,0.00,15.77,19.24,22.46,14.23,47.63,1011.54,2059.00,3288.09,2998.24,3428.94,600.11,608.00,13.78,0000 0000 0000 0000 000000
2017-11-26 07:05:16,0.02,0.52,0.00,15.76,19.22,22.46,14.24,47.58,1011.62,2059.00,3287.45,2998.00,3428.25,600.19,608.12,13.83,0000 0000 0000 0000 000000
2017-11-26 07:10:17,0.00,0.52,0.00,15.74,19.22,22.45,14.30,47.63,1011.36,2059.00,3286.98,2997.89,3428.00,600.48,608.21,13.88,0000 0000 0000 0000 000000
2017-11-26 07:15:18,0.02,0.53,0.00,15.73,19.21,22.39,14.25,47.56,1011.28,2059.01,3286.77,2997.37,3427.89,600.64,608.47,13.93,0000 0000 0000 0000 000000
2017-11-26 07:20:20,0.03,0.53,0.00,15.71,19.19,22.44,14.24,47.61,1011.25,2059.01,3286.46,2997.08,3427.11,599.96,607.95,13.98,0000 0000 0000 0000 000000
2017-11-26 07:25:21,0.00,0.53,0.00,15.69,19.19,22.40,14.24,47.60,1011.25,2059.02,3286.00,2997.00,3427.00,599.93,607.81,14.03,0000 0000 0000 0000 000000
2017-11-26 07:30:22,0.01,0.53,0.00,15.69,19.17,22.44,14.21,47.70,1011.25,2059.03,3285.70,2996.99,3426.99,599.99,607.95,14.08,0000 0000 0000 0000 000000
2017-11-26 07:35:24,0.01,0.53,0.00,15.67,19.16,22.43,14.26,47.71,1011.25,2059.03,3285.06,2996.91,3426.79,599.95,607.80,14.13,0000 0000 0000 0000 000000
2017-11-26 07:40:25,0.03,0.53,0.00,15.67,19.14,22.40,14.24,47.58,1011.25,2059.06,3285.00,2996.34,3426.07,600.05,608.02,14.18,0000 0000 0000 0000 000000
2017-11-26 07:45:26,0.02,0.53,0.00,15.65,19.13,22.40,14.29,47.54,1011.25,2059.14,3284.60,2996.07,3426.01,600.08,608.02,14.23,0000 0000 0000 0000 000000
2017-11-26 07:50:28,0.02,0.53,0.00,15.63,19.12,22.37,14.28,47.63,1011.26,2059.27,3284.04,2996.01,3426.00,599.92,607.95,14.28,0000 0000 0000 0000 000000
2017-11-26 07:55:29,0.02,0.53,0.00,15.63,19.11,22.39,14.29,47.57,1011.34,2059.44,3283.74,2995.98,3425.69,600.31,608.39,14.33,0000 0000 0000 0000 000000
2017-11-26 08:00:30,0.06,0.54,0.00,15.61,19.09,22.35,14.35,47.58,1011.70,2059.66,3283.41,2995.53,3424.91,600.11,608.54,14.38,0000 0000 0000 0000 000000
2017-11-26 08:05:32,0.01,0.54,0.00,15.59,19.08,22.34,14.26,47.60,1011.73,2059.45,3282.40,2995.00,3424.07,599.99,608.48,14.43,0000 0000 0000 0000 000000
2017-11-26 08:10:33,0.04,0.54,0.00,15.59,19.07,22.35,14.24,47.58,1011.72,2059.55,3281.70,2994.48,3423.98,600.04,608.33,14.48,0000 0000 0000 0000 000000
2017-11-26 08:15:34,0.03,0.54,0.00,15.57,19.06,22.29,14.29,47.56,1011.73,2059.86,3281.06,2994.07,3423.96,600.23,608.75,14.53,0000 0000 0000 0000 000000
2017-11-26 08:20:35,0.02,0.54,0.00,15.57,19.04,22.27,14.18,47.58,1011.73,2059.94,3281.01,2994.03,3423.63,599.69,608.20,14.58,0000 0000 0000 0000 000000
2017-11-26 08:25:36,0.01,0.54,0.00,15.54,19.03,22.30,14.27,47.59,1011.73,2059.96,3281.00,2994.02,3423.08,600.23,608.74,14.63,0000 0000 0000 0000 000000
2017-11-26 08:30:37,0.00,0.54,0.00,15.53,19.02,22.30,14.27,47.66,1011.73,2059.97,3280.71,2994.00,3423.00,599.80,608.50,14.68,0000 0000 0000 0000 000000
2017-11-26 08:35:38,0.01,0.54,0.00,15.51,19.01,22.24,14.15,47.58,1011.73,2059.97,3280.03,2993.98,3422.98,599.46,608.22,14.73,0000 0000 0000 0000 000000
2017-11-26 08:40:39,-0.00,0.54,0.00,15.50,18.99,22.27,14.35,47.63,1011.73,2059.98,3279.99,2993.90,3422.97,600.07,608.68,14.78,0000 0000 0000 0000 000000
2017-11-26 08:45:40,0.02,0.54,0.00,15.48,18.98,22.20,14.28,47.58,1011.73,2059.99,3279.86,2993.50,3422.58,600.37,608.98,14.83,0000 0000 0000 0000 000000
2017-11-26 08:50:42,0.02,0.55,0.00,15.47,18.97,22.22,14.30,47.58,1011.73,2059.99,3279.70,2993.11,3422.03,599.84,608.55,14.88,0000 0000 0000 0000 000000
2017-11-26 08:55:43,0.01,0.55,0.00,15.47,18.95,22.18,14.29,47.52,1011.73,2059.99,3279.15,2993.03,3421.99,599.89,608.56,14.93,0000 0000 0000 0000 000000
2017-11-26 09:00:44,0.00,0.55,0.00,15.45,18.94,22.17,14.25,47.52,1011.73,2059.99,3278.96,2993.00,3421.97,599.93,608.67,14.98,0000 0000 0000 0000 000000
2017-11-26 09:05:45,0.01,0.55,0.00,15.43,18.92,22.19,14.24,47.66,1011.73,2059.99,3278.24,2992.99,3421.93,599.89,608.61,15.03,0000 0000 0000 0000 000000
2017-11-26 09:10:47,0.01,0.55,0.00,15.41,18.91,22.18,14.24,47.83,1011.73,2060.01,3278.00,2992.97,3421.43,599.63,608.52,15.08,0000 0000 0000 0000 000000
2017-11-26 09:15:48,0.00,0.55,0.00,15.39,18.89,22.18,14.29,47.73,1011.72,2060.03,3277.98,2992.93,3421.10,599.93,608.56,15.13,0000 0000 0000 0000 000000
2017-11-26 09:20:49,0.01,0.55,0.00,15.37,18.88,22.17,14.34,47.62,1011.73,2060.03,3277.95,2992.80,3421.00,600.45,609.32,15.18,0000 0000 0000 0000 000000
2017-11-26 09:25:51,0.02,0.55,0.00,15.37,18.87,22.17,14.29,47.65,1011.73,2060.05,3277.24,2992.46,3421.00,600.31,609.21,15.23,0000 0000 0000 0000 000000
2017-11-26 09:30:52,0.02,0.55,0.00,15.36,18.85,22.13,14.40,47.66,1011.74,2060.21,3276.99,2992.06,3421.00,600.79,609.57,15.28,0000 0000 0000 0000 000000
2017-11-26 09:35:54,0.05,0.55,0.00,15.33,18.84,22.11,14.32,47.73,1011.73,2060.74,3276.95,2992.02,3420.99,600.54,609.49,15.33,0000 0000 0000 0000 000000
2017-11-26 09:40:55,0.02,0.55,0.00,15.30,18.82,22.05,14.28,47.69,1011.74,2060.86,3276.54,2992.00,3420.95,600.05,609.07,15.38,0000 0000 0000 0000 000000
2017-11-26 09:45:56,0.00,0.56,0.00,15.29,18.82,22.10,14.34,47.70,1011.73,2060.93,3276.02,2992.00,3420.87,600.28,609.24,15.43,0000 0000 0000 0000 000000
2017-11-26 09:50:57,0.01,0.56,0.00,15.29,18.80,22.04,14.36,47.81,1011.73,2060.97,3276.00,2992.00,3420.35,599.81,608.73,15.48,0000 0000 0000 0000 000000
2017-11-26 09:55:58,0.01,0.56,0.00,15.28,18.79,22.02,14.22,47.57,1011.74,2060.98,3276.00,2991.99,3420.09,599.81,608.79,15.53,0000 0000 0000 0000 000000
2017-11-26 10:01:00,-0.00,0.56,0.00,15.26,18.78,22.01,14.31,47.60,1011.74,2060.97,3275.99,2991.97,3420.02,599.86,608.99,15.58,0000 0000 0000 0000 000000
2017-11-26 10:06:01,0.00,0.56,0.00,15.25,18.77,22.01,14.24,47.74,1011.73,2060.98,3275.98,2991.99,3420.00,599.67,608.82,15.63,0000 0000 0000 0000 000000
2017-11-26 10:11:02,0.00,0.56,0.00,15.24,18.76,22.00,14.33,47.63,1011.73,2060.98,3275.71,2991.95,3419.99,600.17,609.27,15.68,0000 0000 0000 0000 000000
2017-11-26 10:16:03,0.01,0.56,0.00,15.22,18.74,21.93,14.32,47.69,1011.72,2060.99,3275.11,2991.88,3419.98,600.18,609.24,15.73,0000 0000 0000 0000 000000
2017-11-26 10:21:04,0.01,0.56,0.00,15.20,18.73,21.96,14.33,47.73,1011.71,2060.99,3275.00,2991.59,3419.96,600.13,609.34,15.78,0000 0000 0000 0000 000000
2017-11-26 10:26:06,0.01,0.56,0.00,15.18,18.72,21.95,14.25,47.58,1011.57,2060.99,3275.00,2991.23,3419.83,599.68,608.78,15.83,0000 0000 0000 0000 000000
2017-11-26 10:31:07,0.01,0.56,0.00,15.16,18.71,21.92,14.31,47.63,1011.40,2060.99,3274.93,2991.08,3419.46,600.30,609.45,15.88,0000 0000 0000 0000 000000
2017-11-26 10:36:08,0.01,0.56,0.00,15.16,18.69,21.90,14.27,47.64,1011.35,2061.00,3274.14,2991.02,3419.27,599.87,608.82,15.93,0000 0000 0000 0000 000000
2017-11-26 10:41:09,0.00,0.56,0.00,15.14,18.68,21.86,14.26,47.67,1011.27,2061.01,3274.05,2991.03,3419.21,599.91,608.97,15.98,0000 0000 0000 0000 000000
2017-11-26 10:46:10,0.00,0.56,0.00,15.16,18.67,21.86,14.26,47.84,1011.25,2061.03,3274.00,2991.00,3419.06,599.74,608.76,16.03,0000 0000 0000 0000 000000
2017-11-26 10:51:11,0.00,0.56,0.00,15.14,18.65,21.88,14.34,47.81,1011.23,2061.04,3273.98,2991.00,3419.01,600.27,609.35,16.08,0000 0000 0000 0000 000000
2017-11-26 10:56:12,0.01,0.56,0.00,15.13,18.64,21.90,14.28,47.82,1011.16,2061.08,3273.77,2991.00,3419.00,600.18,609.20,16.13,0000 0000 0000 0000 000000
2017-11-26 11:01:14,0.03,0.56,0.00,15.13,18.62,21.90,14.27,47.83,1010.88,2061.20,3273.17,2990.98,3419.00,600.01,608.82,16.19,0000 0000 0000 0000 000000
2017-11-26 11:06:15,0.01,0.56,0.00,15.11,18.62,21.87,14.33,47.79,1010.80,2061.39,3273.04,2990.97,3418.98,600.45,609.19,16.24,0000 0000 0000 0000 000000
2017-11-26 11:11:17,0.03,0.56,0.00,15.09,18.59,21.79,14.20,47.84,1010.76,2061.70,3273.00,2990.92,3418.92,599.62,608.43,16.29,0000 0000 0000 0000 000000
2017-11-26 11:16:18,0.01,0.57,0.00,15.09,18.59,21.83,14.24,47.84,1010.76,2061.90,3272.98,2990.84,3418.72,599.61,608.61,16.34,0000 0000 0000 0000 000000
2017-11-26 11:21:19,0.00,0.57,0.00,15.07,18.57,21.83,14.31,47.76,1010.76,2061.96,3272.97,2990.82,3418.49,600.16,609.06,16.39,0000 0000 0000 0000 000000
2017-11-26 11:26:21,0.02,0.57,0.00,15.06,18.57,21.80,14.19,47.77,1010.77,2061.98,3272.63,2990.64,3418.21,599.89,608.79,16.44,0000 0000 0000 0000 000000
2017-11-26 11:31:22,0.02,0.57,0.00,15.05,18.54,21.80,14.20,47.77,1010.80,2061.97,3272.03,2990.17,3418.05,599.54,608.52,16.49,0000 0000 0000 0000 000000
2017-11-26 11:36:23,0.00,0.57,0.00,15.03,18.54,21.82,14.28,47.73,1011.11,2061.99,3272.00,2990.04,3418.00,600.14,609.33,16.54,0000 0000 0000 0000 000000
2017-11-26 11:41:24,0.00,0.57,0.00,15.02,18.52,21.77,14.28,47.75,1011.06,2061.99,3272.00,2990.03,3418.00,599.53,608.72,16.59,0000 0000 0000 0000 000000
2017-11-26 11:46:26,0.00,0.57,0.00,15.01,18.52,21.76,14.28,47.82,1010.90,2061.99,3271.96,2990.01,3418.00,600.10,609.18,16.64,0000 0000 0000 0000 000000
2017-11-26 11:51:27,0.00,0.57,0.00,14.99,18.49,21.72,14.33,47.79,1010.87,2061.99,3271.75,2990.01,3417.99,600.28,609.24,16.69,0000 0000 0000 0000 000000
2017-11-26 11:56:28,0.01,0.57,0.00,14.97,18.49,21.72,14.30,47.83,1010.91,2062.00,3271.28,2990.00,3417.95,599.70,608.86,16.74,0000 0000 0000 0000 000000
2017-11-26 12:01:30,0.00,0.57,0.00,14.97,18.48,21.69,14.33,47.82,1010.85,2062.01,3271.00,2989.99,3417.68,600.45,609.56,16.79,0000 0000 0000 0000 000000
2017-11-26 12:06:31,0.01,0.57,0.00,14.94,18.47,21.68,14.30,48.05,1010.82,2062.02,3270.97,2989.97,3417.25,600.05,609.28,16.84,0000 0000 0000 0000 000000
2017-11-26 12:11:32,0.01,0.57,0.00,14.94,18.45,21.64,14.29,47.84,1010.89,2062.04,3270.51,2989.94,3417.03,600.04,609.39,16.89,0000 0000 0000 0000 000000
2017-11-26 12:16:33,0.01,0.57,0.00,14.95,18.44,21.65,14.30,47.94,1011.04,2062.04,3270.07,2989.89,3417.01,599.78,609.05,16.94,0000 0000 0000 0000 000000
2017-11-26 12:21:35,0.02,0.57,0.00,14.94,18.43,21.63,14.24,47.82,1011.06,2062.14,3270.01,2989.64,3417.00,599.98,609.35,16.99,0000 0000 0000 0000 000000
2017-11-26 12:26:36,0.01,0.57,0.00,14.91,18.42,21.63,14.30,47.86,1010.96,2062.27,3270.00,2989.50,3417.00,599.68,608.99,17.04,0000 0000 0000 0000 000000
2017-11-26 12:31:37,0.02,0.57,0.00,14.93,18.42,21.63,14.28,47.93,1010.83,2062.31,3269.98,2989.10,3416.97,599.88,609.19,17.09,0000 0000 0000 0000 000000
2017-11-26 12:36:39,0.04,0.58,0.00,14.93,18.40,21.59,14.23,47.88,1011.05,2062.57,3269.79,2989.03,3416.93,599.94,609.32,17.14,0000 0000 0000 0000 000000
2017-11-26 12:41:40,0.03,0.58,0.00,14.93,18.39,21.62,14.29,47.88,1011.23,2062.88,3269.36,2989.03,3416.66,600.17,609.66,17.19,0000 0000 0000 0000 000000
2017-11-26 12:46:41,0.01,0.58,0.00,14.91,18.38,21.62,14.27,47.83,1011.22,2062.95,3269.03,2989.01,3416.31,599.98,609.48,17.24,0000 0000 0000 0000 000000
2017-11-26 12:51:42,0.00,0.58,0.00,14.90,18.37,21.56,14.26,47.91,1011.22,2062.96,3269.00,2989.00,3416.04,600.05,609.52,17.29,0000 0000 0000 0000 000000
2017-11-26 12:56:44,0.00,0.58,0.00,14.89,18.37,21.52,14.40,48.04,1011.19,2062.94,3268.96,2988.99,3416.00,600.20,609.65,17.34,0000 0000 0000 0000 000000